This demonstration page uses our WeatherBlox Daily Observations layout. Learn more.

38.80484, -77.04692

Hourly Observations for November 25, 2019

Temp ( °F °C ) Dew Point ( °F °C ) Humidity (%) Winds ( mph kmh ) Pressure ( in mb ) Visibility ( mi km ) Precip ( " mm )
12:52 am 00:52 Clear 39 3.9 31 -0.6 73 73 SW 5 7 29.77 1008 10 16.0934 0 0
1:52 am 01:52 Clear 38 3.3 31 -0.6 76 76 WSW 5 7 29.79 1009 10 16.0934 0 0
2:52 am 02:52 Clear 37 2.8 32 0 82 82 WSW 5 7 29.81 1010 10 16.0934 0 0
3:52 am 03:52 Clear 37 2.8 33 0.6 86 86 S 9 15 29.82 1010 10 16.0934 0 0
4:52 am 04:52 Clear 37 2.8 33 0.6 86 86 SSW 6 9 29.84 1010 10 16.0934 0 0
5:52 am 05:52 Mostly Cloudy 37 2.8 32 0 82 82 Calm 29.85 1011 10 16.0934 0 0
6:52 am 06:52 Partly Cloudy 38 3.3 35 1.7 89 89 Calm 29.85 1011 10 16.0934 0 0
7:52 am 07:52 Partly Cloudy 40 4.4 36 2.2 86 86 Calm 29.86 1011 10 16.0934 0 0
8:52 am 08:52 Partly Cloudy 44 6.7 39 3.9 83 83 S 7 11 29.88 1012 10 16.0934 0 0
9:52 am 09:52 Partly Cloudy 48 8.9 38 3.3 68 68 S 7 11 29.89 1012 10 16.0934 0 0
10:52 am 10:52 Partly Cloudy 51 10.6 36 2.2 56 56 S 7 11 29.9 1012 10 16.0934 0 0
11:52 am 11:52 Mostly Sunny 53 11.7 35 1.7 51 51 S 8 13 29.87 1012 10 16.0934 0 0
12:52 pm 12:52 Mostly Sunny 55 12.8 36 2.2 49 49 S 6 9 29.86 1011 10 16.0934 0 0
1:52 pm 13:52 Mostly Sunny 57 13.9 36 2.2 45 45 S 9 15 29.85 1011 10 16.0934 0 0
2:52 pm 14:52 Mostly Sunny 57 13.9 35 1.7 44 44 SSW 12 19 29.86 1011 10 16.0934 0 0
3:52 pm 15:52 Mostly Sunny 54 12.2 38 3.3 55 55 S 7 11 29.87 1011 10 16.0934 0 0
4:52 pm 16:52 Partly Cloudy 52 11.1 36 2.2 55 55 S 7 11 29.88 1012 10 16.0934 0 0
5:52 pm 17:52 Partly Cloudy 50 10 39 3.9 66 66 S 7 11 29.9 1012 10 16.0934 0 0
6:52 pm 18:52 Partly Cloudy 48 8.9 38 3.3 68 68 SSW 7 11 29.91 1013 10 16.0934 0 0
8:52 pm 20:52 Mostly Clear 47 8.3 38 3.3 71 71 SSW 5 7 29.93 1014 10 16.0934 0 0
9:52 pm 21:52 Mostly Clear 46 7.8 38 3.3 73 73 Calm 29.95 1014 10 16.0934 0 0
10:52 pm 22:52 Clear 43 6.1 40 4.4 89 89 S 7 11 29.95 1014 10 16.0934 0 0
11:52 pm 23:52 Mostly Clear 42 5.6 39 3.9 89 89 SW 5 7 29.93 1014 10 16.0934 0 0

Powered by AerisWeather